Regional Weather Roundup
Issued by NWS Raleigh/Durham, NC

Home | Current Version | Previous Version | Text Only | Print | Product List | Glossary On
Versions: 1 2 3 4 5 6 7 8 9 10 11 12 13 14 15 16 17 18 19 20 21 22 23 24 25 26 27
000
ASUS42 KRAH 240810
RWRRAH
NORTH CAROLINA WEATHER ROUNDUP
NATIONAL WEATHER SERVICE RALEIGH NC
400 AM EDT FRI MAR 24 2017

NOTE: "FAIR" INDICATES FEW OR NO CLOUDS BELOW 12,000 FEET WITH NO
SIGNIFICANT WEATHER AND/OR OBSTRUCTIONS TO VISIBILITY.

NCZ001-053-055-056-065-067-240900-
WESTERN NORTH CAROLINA

CITY           SKY/WX    TMP DP  RH WIND       PRES   REMARKS
ASHEVILLE      CLOUDY    46  24  42 SE5       30.44F
JEFFERSON      CLOUDY    36  25  64 SE3       30.41S
MORGANTON      MOCLDY    37  32  82 NW3       30.51F
HICKORY        CLOUDY    45  26  47 S6        30.46F
RUTHERFORDTON  CLOUDY    41  33  73 CALM      30.48F
MOUNT AIRY     CLEAR     37  29  72 CALM      30.49S
BOONE          CLOUDY    41  22  46 SE3       30.42S
$$

NCZ021-022-025-041-071-084-088-240900-
CENTRAL NORTH CAROLINA

CITY           SKY/WX    TMP DP  RH WIND       PRES   REMARKS
CHARLOTTE      PTCLDY    43  31  62 S7        30.49F
GREENSBORO     CLEAR     41  30  65 S10       30.47F
WINSTON-SALEM  CLEAR     42  26  53 S6        30.48F
RALEIGH-DURHAM PTCLDY    39  27  62 S5        30.53F
FORT BRAGG     CLEAR     37  33  86 CALM      30.52F
FAYETTEVILLE   CLEAR     36  32  85 NE5       30.52F WCI  32
BURLINGTON     PTCLDY    41  29  62 S3        30.50F
LAURINBURG     NOT AVBL
$$

NCZ011-015-027-028-043-044-047-080-103-240900-
NORTHEASTERN NORTH CAROLINA

CITY           SKY/WX    TMP DP  RH WIND       PRES   REMARKS
ROCKY MT-WILSO CLEAR     33  31  92 CALM      30.55F
GREENVILLE     CLEAR     32  30  93 CALM      30.54F
WASHINGTON     CLEAR     30  28  90 CALM      30.55F
ELIZABETH CITY CLEAR     32  28  85 SE3       30.55F
MANTEO         CLEAR     34  30  86 E5        30.55F WCI  30
CAPE HATTERAS  CLEAR     44  37  76 NE7       30.54F
$$

NCZ078-087-090-091-093-098-101-240900-
SOUTHEASTERN NORTH CAROLINA

CITY           SKY/WX    TMP DP  RH WIND       PRES   REMARKS
LUMBERTON      CLEAR     40  34  79 E5        30.52S
GOLDSBORO      CLEAR     34  34  99 CALM      30.53F
KINSTON        CLEAR     33  31  90 CALM      30.55F
KENANSVILLE    CLEAR     32  30  93 CALM      30.54F
NEW BERN       CLEAR     37  33  85 E6        30.55F WCI  32
CHERRY POINT   NOT AVBL
BEAUFORT       CLEAR     41  34  76 NE5       30.53F
JACKSONVILLE   CLEAR     38  34  85 N3        30.53S
WILMINGTON     CLEAR     37  34  89 NE6       30.52R WCI  32
$$





USA.gov is the U.S. government's official web portal to all federal, state and local government web resources and services.